LogoCoinalyze
    Ad-Free Version Inicio Mercados Tasas de Financiamiento
    Datos de futuros
    • Datos agregados (Monedas)
    • Gráficos individuales
    • Gráficos globales
    Alertas
    TA
    Bitcoin Ethereum BNB Ripple Tron Dogecoin ZCash Monero UNUS SED LEO Chainlink Cardano Stellar Lumens Bitcoin Cash Litecoin Hedera Cronos Polkadot Ethereum Classic Algorand Cosmos Quant VeChain Dash Bitcoin SV BitTorrent Terra Tezos Decred Iota The Graph THETA MultiversX Decentraland NEO Chiliz Golem Basic Attention Token Horizen Qtum DigiByte 0x Beam RIF Token FTX Token Holo FUNToken aelf Zilliqa Ontology Nano Enjin Coin Ravencoin Mask Network Verge Siacoin Status WINk Waves IoTeX iExec RLC Power Ledger Steem Kyber Network Crystal Lisk Ark Ardor WOO Network IOST WAX Icon Storj Loopring Wanchain Bitcoin Diamond Augur AdEx Bitcoin Gold OmiseGO NEM MonaCoin BitShares Ren Komodo V Systems Nuls Mithril SOLVE Maker EOS Aion Nebulas HedgeTrade Bread Fetch.ai TomoChain Polygon Fantom Waltonchain GXChain Bytom Metaverse ETP MaidSafeCoin QASH
    Ordenar por:
    Más
    • API
    • Patrones de velas
    • Donar
    • Contacto
    • Mapa del Sitio
    • Privacy Policy
    • Disclaimer
    • Theme:
    Español
    • English
    • Français
    • Русский
    • Deutsch
    • Türkçe
    • Nederlands
    • Português (BR)
    • 한국어
    • 简体中文
    • 日本語
     
    Iniciar sesión / Registrar
    Markets/ Pepe/ PEPE a TRY/ PEPETRY Binance
    Trades
    WL
    Chat
    Estad.
    Noticias
    ⦷
    AAA
    0.00016664 33354230.00000000 10:28:26
    0.00016663 52463100.00000000 10:28:26
    0.00016666 127470414.00000000 10:28:05
    0.00016665 90031.00000000 10:28:05
    0.00016662 52189400.00000000 10:28:05
    0.00016673 599988.00000000 10:27:08
    0.00016670 78715728.00000000 10:27:00
    0.00016669 90000.00000000 10:26:43
    0.00016666 94971.00000000 10:25:56
    0.00016663 82183307.00000000 10:25:42
    0.00016666 300012.00000000 10:25:10
    0.00016666 67750629.00000000 10:24:41
    0.00016665 52189400.00000000 10:24:41
    0.00016673 52189400.00000000 10:24:32
    0.00016675 52372910.00000000 10:24:31
    0.00016675 52372910.00000000 10:24:27
    0.00016675 52189400.00000000 10:24:27
    0.00016680 52422981.00000000 10:23:54
    0.00016680 4747016.00000000 10:23:54
    0.00016679 52189400.00000000 10:23:54
    0.00016680 56936416.00000000 10:23:54
    0.00016680 36403918.00000000 10:23:54
    0.00016694 1198035.00000000 10:23:12
    0.00016700 3811000.00000000 10:23:02
    0.00016701 80116971.00000000 10:23:02
    0.00016702 52372601.00000000 10:23:02
    0.00016706 183180.00000000 10:22:45
    0.00016706 60000.00000000 10:22:06
    0.00016701 61086.00000000 10:21:27
    0.00016700 47.00000000 10:21:27
    0.00016700 11976000.00000000 10:21:27
    0.00016699 26969172.00000000 10:20:55
    0.00016699 3814000.00000000 10:20:34
    0.00016681 3820000.00000000 10:20:07
    0.00016680 166280.00000000 10:20:07
    0.00016680 26011560.00000000 10:20:07
    0.00016680 26011560.00000000 10:20:07
    0.00016670 89953.00000000 10:20:03
    0.00016671 79072820.00000000 10:20:03
    0.00016672 52372922.00000000 10:20:02
    0.00016673 52189400.00000000 10:20:02
    0.00016676 293835.00000000 10:20:02
    0.00016673 52189400.00000000 10:20:01
    0.00016673 52189400.00000000 10:20:01
    0.00016675 8965326.00000000 10:19:36
    0.00016674 183564.00000000 10:19:36
    0.00016673 52189400.00000000 10:19:36
    0.00016678 61159.00000000 10:19:01
    0.00016678 52311718.00000000 10:19:01
    0.00016681 52189400.00000000 10:19:00
    0.00016681 52189400.00000000 10:19:00
    0.00016681 52189400.00000000 10:19:00
    0.00016681 52189400.00000000 10:19:00
    0.00016681 52189400.00000000 10:19:00
    0.00016681 52189400.00000000 10:19:00
    0.00016681 52189400.00000000 10:19:00
    0.00016681 52189400.00000000 10:19:00
    0.00016682 183432.00000000 10:18:59
    0.00016681 52189400.00000000 10:18:59
    0.00016680 52189400.00000000 10:18:57
    0.00016679 273572.00000000 10:18:57
    0.00016661 22520862.00000000 10:18:23
    0.00016661 121014868.00000000 10:18:23
    0.00016647 6011783.00000000 10:18:05
    0.00016634 302042748.00000000 10:17:25
    0.00016634 733470400.00000000 10:17:25
    0.00016634 115774240.00000000 10:17:23
    0.00016633 18637648.00000000 10:17:23
    0.00016633 52189400.00000000 10:17:11
    0.00016633 52189400.00000000 10:17:11
    0.00016633 52373372.00000000 10:17:11
    0.00016632 26086956.00000000 10:17:11
    0.00016632 26086956.00000000 10:17:11
    0.00016632 426371.00000000 10:17:11
    0.00016632 34202898.00000000 10:17:11
    0.00016632 34202898.00000000 10:17:11
    0.00016632 52189400.00000000 10:17:11
    0.00016633 78827105.00000000 10:17:09
    0.00016633 52279602.00000000 10:17:04
    0.00016633 52066730.00000000 10:17:04
    0.00016631 184005.00000000 10:17:04
    0.00016633 52189400.00000000 10:17:04
    0.00016633 115774240.00000000 10:17:03
    0.00016633 115774240.00000000 10:17:03
    0.00016634 110277573.00000000 10:17:03
    0.00016633 5481179.00000000 10:17:03
    0.00016632 15488.00000000 10:17:03
    0.00016632 26086956.00000000 10:17:02
    0.00016632 26086956.00000000 10:17:02
    0.00016632 199484.00000000 10:17:02
    0.00016632 26086956.00000000 10:17:02
    0.00016632 26086956.00000000 10:17:02
    0.00016633 52189400.00000000 10:16:44
    0.00016633 52189400.00000000 10:16:44
    0.00016633 52189400.00000000 10:16:44
    0.00016633 52189400.00000000 10:16:44
    0.00016633 52189400.00000000 10:16:44
    0.00016633 52189400.00000000 10:16:44
    0.00016633 52189400.00000000 10:16:44
    0.00016634 115774240.00000000 10:16:44
    Desconectar
    AAA
    Ayuda
    🙂 🤣 😎 🤗 😛 😉 😜 🤑 🤔 😑 😴 😕 🙃 😲 😇 🙁 😢 😬 😟 😠 🕺 🏃 💪 ✌ 👌 👍 👎 👏 👋 🤝 🍺 🍻 🐋 🐟 🦈 🗽 🚄 ✈ 🛑 🚀 🏦 🌚 ⭐ 🌞 ⚡ 🏆 💰 💲 🔨 ❓ ❗ 💯 🔶 🏁
    ☺
    Iniciar sesión o Registrar y chatea
    24 Horas
    Variación
    +1.52%
    Volumen
    648,557,512,518
    Máx.
    0.00016875
    Mín.
    0.00016213
    7 Días
    Variación
    -10.07%
    Volumen
    5,630,940,412,237
    Máx.
    0.00019297
    Mín.
    0.00016213
    30 Días
    Variación
    +21.09%
    Volumen
    37,893,900,024,268
    Máx.
    0.00021642
    Mín.
    0.00012111
    DOGE, SHIB, PEPE, or Something Else: Which Meme Coin Can Make History in September? (3 AIs Weigh In)
    "DOGE remains the most likely to record the largest move in dollar terms and lead the entire sector," ChatGPT stated.
    cryptopotato.com
    Sept 3, 2026 00:41
    Pepe price rallies 25% as whale demand and futures interest surge
    Key takeaways Pepe has gained 25% this week, including a combined 22% advance over the previous two days. Seven whale transactions worth more than $1 million each occurred Thursday, the highest...
    coinjournal.net
    Aug 21, 2026 08:41
    PEPE Supply on Exchanges Just Took a Massive Hit – What’s Next?
    A drop in PEPE exchange balances has added to bullish expectations despite muted trader interest.
    cryptopotato.com
    Aug 6, 2026 20:02
    PEPE Exchange Outflows Hit Nearly 2-Year High as Whales Accumulate
    Pepe (PEPE) recorded its largest single-day exchange outflow since November 2024, with 4.54 trillion tokens leaving trading platforms, signaling that holders are moving supply away from immediate...
    beincrypto.com
    Aug 6, 2026 04:57
    Meme Coin Based on White House Shooter Conspiracy Rallies 320%
    $HENRY surged 300% after a 2023 Pepe tweet appeared to name the White House shooter, fueling a viral time-travel meme. The post Meme Coin Based on White House Shooter Conspiracy Rallies 320%...
    beincrypto.com
    Apr 27, 2026 16:11
    PEPE surges 4% as market sentiment improves, eyes Key resistance breakout
    Key takeaways Pepe extends gains on Wednesday, stretching its rally from the 50-day EMA. Derivatives data show heightened retail activity as risk-on sentiment returns to the market. Pepe (PEPE) is...
    coinjournal.net
    Apr 22, 2026 11:44
    Why The PEPE Price Could Stage A 55X Rally To Reach New $0.0001 ATH
    The PEPE price has now started to edge back into bullish conversations after the recent inflows into the crypto market. The last time PEPE’s weekly chart printed the kind of structure now...
    newsbtc.com
    Apr 21, 2026 15:30
    Pepe (PEPE) surges 9%, drawing interest from whales
    Key takeaways PEPE is up 9% in the last 24 hours, making it one of the best performers among the top 50 cryptocurrencies by market cap. The rally comes amid renewed interest from whales and retail...
    coinjournal.net
    Apr 16, 2026 07:40
    Murad Says SPX6900 (SPX) Is Primed for a Rally — Is He Right This Time?
    Crypto influencer Murad Mahmudov claims SPX6900 (SPX) is stabilizing at the same market cap level where Dogecoin (DOGE) and Pepe (PEPE) consolidated before their explosive rallies. The...
    beincrypto.com
    Apr 5, 2026 21:36
    The Shiba Inu Of This Cycle: Analyst Shares Why It Is Better To Buy PEPE Now
    In the bull market cycle of 2021-2022, the Shiba Inu meme coin made waves in a way that changed the face of meme coins forever. This came after Dogecoin’s initial 36,000% rally, and Shiba Inu...
    newsbtc.com
    Apr 4, 2026 07:30
    PEPE Explodes by 18% Amid Altcoin Rally, BTC Tapped $74K: Market Watch
    The frog-themed meme coin is today's biggest gainer, followed by TAO, DOT, and BONK.
    cryptopotato.com
    Mar 16, 2026 10:56
    Should PEPE traders brace for volatility as short squeeze potential builds?
    The memecoin market has seen its collective market capitalization drop by 48% over the past year, and 6.9% over the past month, according to CoinMarketCap. According to Glassnode, the memecoin...
    ambcrypto.com
    Mar 7, 2026 18:00
    Simplemente teclea el comando en el chat. Sustituir nick1 por el apodo real.
    • /ignore nick1 Ignorar un usuario del chat
    • /unignore nick1 Dejar de ignorar un usuario del chat
    • /ignorelist Mostrar usuarios del chat que has ignorado